Miami, FL

12:40 PM EDT en Abril 25, 2018 (GMT -0400)
Miami International

Tiempo Historia de KMIA - Abril, 2018

Change the Weather History Date:

Lunes, Abril 16, 2018

  Actual Average Record
Temperature  
Temperatura media 72 ° F 76 ° F  
Temperatura máxima 82 ° F 83 ° F 93 ° F (1965)
Temperatura mínima 62 ° F 68 ° F 49 ° F (1950)
Degree Days  
Grados día de calefacción 0 0  
Month to date heating degree days 0 0  
Since 1 July heating degree days 85 127  
Cooling Degree Days 7 11  
Month to date cooling degree days 204 159  
Year to date cooling degree days 877 728  
Growing Degree Days 24 (Base 50)    
Moisture  
Punto de rocío 57 ° F    
Average Humidity 64    
Maximum Humidity 100    
Minimum Humidity 28    
Precipitación  
Precipitación 0.00 pul 0.11 pul 12.58 pul (1942)
Month to date precipitation 1.28 1.66  
Year to date precipitation 2.85 8.53  
Nieve  
Nieve 0.00 pul - - ()
Month to date snowfall 0.0  
Since 1 July snowfall 0.0  
Grosos de nieve 0.00 pul    
Presión al nivel del mar  
Presión al nivel del mar 30.06 pul    
Viento  
Velocidad del viento 9 mph (NO)    
Velocidad máxima del viento 16 mph    
Max Gust Speed 26 mph    
Visibilidad 10 Millas    
Eventos      
T = Trace of Precipitation, MM = Missing Value Source: NWS Daily Summary

Daily Weather History Graph

Daily Weather History Graph

Search for Another Location

Airport or City:

Astronomía

Apr. 16, 2018 Salida Puesta
Hora real 6:57 AM EDT 7:44 PM EDT
Crepúsculo civil 6:33 AM EDT 8:08 PM EDT
Crepúsculo náutico 6:06 AM EDT 8:36 PM EDT
Crepúsculo astronómico 5:37 AM EDT 9:04 PM EDT
Luna 7:33 AM EDT (4/16) 8:33 PM EDT (4/16)
Horas de luz 13h 34m
Horas de luz
12h 47m
Luna nueva, 0% of the Moon is Illuminated
Abr 16
Luna nueva
Abr 22
Cuarto creciente
Abr 29
Luna llena
May 7
Cuarto menguante
May 15
Nueva

Hourly Weather History & Observations

Hora (EDT) Temp. Punto de rocío Humedad Presión Visibilidad Wind Dir Velocidad del viento Velocidad de ráfagas Precip Eventos Condiciones
12:53 AM 72.0 ° F 72.0 ° F 100% 30.04 pul 10.0 mi Sur 6.9 mph - N/A   Muy nublado
1:36 AM 73.0 ° F 72.0 ° F 96% 30.03 pul 10.0 mi OSO 4.6 mph - N/A   Nublado
1:53 AM 73.0 ° F 72.0 ° F 96% 30.03 pul 10.0 mi OSO 8.1 mph - N/A   Nublado
2:53 AM 71.1 ° F 70.0 ° F 96% 30.01 pul 10.0 mi Oeste 8.1 mph - N/A   Muy nublado
3:53 AM 70.0 ° F 66.9 ° F 90% 30.01 pul 10.0 mi ONO 8.1 mph - N/A   Muy nublado
4:20 AM 69.1 ° F 66.0 ° F 90% 30.01 pul 10.0 mi NO 10.4 mph 17.3 mph N/A   Muy nublado
4:53 AM 69.1 ° F 64.0 ° F 84% 30.01 pul 10.0 mi NO 10.4 mph - N/A   Muy nublado
5:53 AM 68.0 ° F 62.1 ° F 81% 30.04 pul 10.0 mi NO 4.6 mph - N/A   Muy nublado
6:53 AM 66.9 ° F 60.1 ° F 79% 30.06 pul 10.0 mi ONO 11.5 mph 17.3 mph N/A   Muy nublado
7:53 AM 66.9 ° F 60.1 ° F 79% 30.09 pul 10.0 mi Variable 5.8 mph - N/A   Parcialmente nublado
8:53 AM 70.0 ° F 57.9 ° F 65% 30.09 pul 10.0 mi ONO 11.5 mph 21.9 mph N/A   Parcialmente nublado
9:53 AM 72.0 ° F 57.0 ° F 59% 30.09 pul 10.0 mi NO 15.0 mph 23.0 mph N/A   Parcialmente nublado
10:53 AM 73.0 ° F 57.9 ° F 59% 30.11 pul 10.0 mi ONO 13.8 mph 21.9 mph N/A   Parcialmente nublado
11:53 AM 73.0 ° F 57.0 ° F 57% 30.11 pul 10.0 mi NO 9.2 mph 23.0 mph N/A   Parcialmente nublado
12:53 PM 75.0 ° F 55.9 ° F 51% 30.10 pul 10.0 mi NO 12.7 mph 20.7 mph N/A   Parcialmente nublado
1:53 PM 77.0 ° F 55.0 ° F 47% 30.08 pul 10.0 mi ONO 10.4 mph 23.0 mph N/A   Despejado
2:53 PM 79.0 ° F 54.0 ° F 42% 30.06 pul 10.0 mi NNO 11.5 mph - N/A   Despejado
3:53 PM 80.1 ° F 51.1 ° F 36% 30.04 pul 10.0 mi NNO 8.1 mph - N/A   Despejado
4:53 PM 80.1 ° F 48.0 ° F 32% 30.03 pul 10.0 mi ONO 6.9 mph - N/A   Despejado
5:53 PM 81.0 ° F 46.9 ° F 30% 30.03 pul 10.0 mi NNO 10.4 mph - N/A   Despejado
6:53 PM 79.0 ° F 43.0 ° F 28% 30.04 pul 10.0 mi NNO 10.4 mph - N/A   Despejado
7:53 PM 75.0 ° F 42.1 ° F 31% 30.05 pul 10.0 mi NO 8.1 mph - N/A   Despejado
8:53 PM 72.0 ° F 44.1 ° F 37% 30.07 pul 10.0 mi NNO 5.8 mph - N/A   Despejado
9:53 PM 71.1 ° F 46.9 ° F 42% 30.09 pul 10.0 mi NO 5.8 mph - N/A   Despejado
10:53 PM 66.0 ° F 53.1 ° F 63% 30.12 pul 10.0 mi NO 13.8 mph 18.4 mph N/A   Despejado
11:53 PM 63.0 ° F 53.1 ° F 70% 30.14 pul 10.0 mi NO 8.1 mph - N/A   Despejado